LOCATION_NAME,SAMPLE COLLECTION TIME,DOSE EQUIVALENT RATE (nSv/h),GAMMA COUNT RATE R02 (CPM),GAMMA COUNT RATE R03 (CPM),GAMMA COUNT RATE R04 (CPM),GAMMA COUNT RATE R05 (CPM),GAMMA COUNT RATE R06 (CPM),GAMMA COUNT RATE R07 (CPM),GAMMA COUNT RATE R08 (CPM),GAMMA COUNT RATE R09 (CPM),STATUS
MN: DULUTH,01/01/2021 00:31:00,,1492.00,858.00,243.00,132.00,70.00,92.00,52.00,22.00,APPROVED
MN: DULUTH,01/01/2021 01:32:00,,1492.00,850.00,246.00,129.00,73.00,93.00,49.00,21.00,APPROVED
MN: DULUTH,01/01/2021 02:32:00,,1483.00,862.00,243.00,132.00,70.00,94.00,49.00,22.00,APPROVED
MN: DULUTH,01/01/2021 03:32:00,,1501.00,874.00,246.00,132.00,71.00,95.00,51.00,22.00,APPROVED
MN: DULUTH,01/01/2021 04:32:00,,1509.00,878.00,247.00,133.00,74.00,94.00,50.00,22.00,APPROVED
MN: DULUTH,01/01/2021 05:32:00,,1512.00,874.00,248.00,134.00,74.00,94.00,51.00,22.00,APPROVED
MN: DULUTH,01/01/2021 06:33:00,,1508.00,870.00,248.00,136.00,72.00,93.00,51.00,21.00,APPROVED
MN: DULUTH,01/01/2021 07:33:00,,1511.00,876.00,253.00,132.00,74.00,94.00,50.00,22.00,APPROVED
MN: DULUTH,01/01/2021 08:33:00,,1512.00,889.00,253.00,133.00,74.00,98.00,53.00,23.00,APPROVED
MN: DULUTH,01/01/2021 09:33:00,,1519.00,886.00,251.00,136.00,70.00,95.00,50.00,22.00,APPROVED
MN: DULUTH,01/01/2021 10:33:00,,1524.00,885.00,249.00,134.00,73.00,98.00,51.00,22.00,APPROVED
MN: DULUTH,01/01/2021 11:34:00,,1525.00,891.00,250.00,136.00,74.00,97.00,51.00,22.00,APPROVED
MN: DULUTH,01/01/2021 12:34:00,,1544.00,910.00,259.00,137.00,77.00,99.00,54.00,23.00,APPROVED
MN: DULUTH,01/01/2021 13:34:00,,1563.00,925.00,263.00,145.00,76.00,101.00,56.00,23.00,APPROVED
MN: DULUTH,01/01/2021 14:34:00,,1571.00,932.00,264.00,146.00,75.00,104.00,56.00,24.00,APPROVED
MN: DULUTH,01/01/2021 15:34:00,,1581.00,939.00,263.00,146.00,79.00,101.00,56.00,25.00,APPROVED
MN: DULUTH,01/01/2021 16:35:00,,1579.00,947.00,273.00,146.00,78.00,105.00,56.00,24.00,APPROVED
MN: DULUTH,01/01/2021 17:35:00,,1583.00,951.00,269.00,149.00,80.00,103.00,55.00,23.00,APPROVED
MN: DULUTH,01/01/2021 18:35:00,,1603.00,954.00,266.00,146.00,79.00,103.00,54.00,23.00,APPROVED
MN: DULUTH,01/01/2021 19:35:00,,1600.00,942.00,263.00,143.00,77.00,104.00,57.00,22.00,APPROVED
MN: DULUTH,01/01/2021 20:35:00,,1594.00,927.00,261.00,141.00,76.00,100.00,51.00,22.00,APPROVED
MN: DULUTH,01/01/2021 21:36:00,,1591.00,932.00,262.00,140.00,74.00,102.00,52.00,22.00,APPROVED
MN: DULUTH,01/01/2021 22:36:00,,1606.00,933.00,262.00,139.00,77.00,100.00,51.00,22.00,APPROVED
MN: DULUTH,01/01/2021 23:36:00,,1599.00,934.00,263.00,141.00,77.00,101.00,55.00,23.00,APPROVED
MN: DULUTH,01/02/2021 00:36:00,,1605.00,940.00,265.00,142.00,78.00,99.00,55.00,22.00,APPROVED
MN: DULUTH,01/02/2021 01:36:00,,1610.00,942.00,262.00,141.00,75.00,101.00,55.00,23.00,APPROVED
MN: DULUTH,01/02/2021 02:37:00,,1620.00,962.00,274.00,142.00,79.00,106.00,57.00,23.00,APPROVED
MN: DULUTH,01/02/2021 03:37:00,,1615.00,982.00,279.00,151.00,81.00,110.00,58.00,24.00,APPROVED
MN: DULUTH,01/02/2021 04:37:00,,1623.00,988.00,280.00,153.00,81.00,108.00,58.00,25.00,APPROVED
MN: DULUTH,01/02/2021 05:37:00,,1618.00,990.00,281.00,158.00,82.00,110.00,60.00,25.00,APPROVED
MN: DULUTH,01/02/2021 06:37:00,,1635.00,1003.00,283.00,156.00,83.00,110.00,58.00,25.00,APPROVED
MN: DULUTH,01/02/2021 07:37:00,,1635.00,1000.00,287.00,162.00,85.00,113.00,60.00,25.00,APPROVED
MN: DULUTH,01/02/2021 08:38:00,,1644.00,1021.00,289.00,162.00,86.00,115.00,61.00,26.00,APPROVED
MN: DULUTH,01/02/2021 09:38:00,,1630.00,1010.00,290.00,164.00,83.00,116.00,61.00,24.00,APPROVED
MN: DULUTH,01/02/2021 10:38:00,,1605.00,979.00,282.00,155.00,81.00,110.00,59.00,25.00,APPROVED
MN: DULUTH,01/02/2021 11:38:00,,1597.00,982.00,281.00,152.00,81.00,109.00,56.00,23.00,APPROVED
MN: DULUTH,01/02/2021 12:38:00,,1614.00,983.00,280.00,153.00,81.00,110.00,57.00,24.00,APPROVED
MN: DULUTH,01/02/2021 13:39:00,,1601.00,968.00,275.00,153.00,81.00,107.00,56.00,23.00,APPROVED
MN: DULUTH,01/02/2021 14:39:00,,1601.00,973.00,278.00,152.00,81.00,109.00,56.00,23.00,APPROVED
MN: DULUTH,01/02/2021 15:39:00,,1579.00,949.00,271.00,151.00,78.00,107.00,57.00,24.00,APPROVED
MN: DULUTH,01/02/2021 16:39:00,,1598.00,946.00,273.00,143.00,76.00,102.00,54.00,24.00,APPROVED
MN: DULUTH,01/02/2021 17:39:00,,1607.00,960.00,274.00,149.00,78.00,106.00,57.00,23.00,APPROVED
MN: DULUTH,01/02/2021 18:40:00,,1630.00,960.00,276.00,149.00,79.00,106.00,55.00,24.00,APPROVED
MN: DULUTH,01/02/2021 19:40:00,,1646.00,981.00,278.00,148.00,81.00,108.00,57.00,23.00,APPROVED
MN: DULUTH,01/02/2021 20:40:00,,1649.00,986.00,282.00,152.00,81.00,109.00,57.00,24.00,APPROVED
MN: DULUTH,01/02/2021 21:40:00,,1651.00,985.00,278.00,154.00,81.00,107.00,58.00,25.00,APPROVED
MN: DULUTH,01/02/2021 22:40:00,,1624.00,971.00,277.00,149.00,81.00,106.00,58.00,22.00,APPROVED
MN: DULUTH,01/02/2021 23:41:00,,1608.00,945.00,266.00,141.00,78.00,102.00,54.00,24.00,APPROVED
MN: DULUTH,01/03/2021 00:41:00,,1598.00,940.00,264.00,144.00,77.00,102.00,53.00,23.00,APPROVED
MN: DULUTH,01/03/2021 01:41:00,,1623.00,953.00,267.00,144.00,78.00,102.00,54.00,24.00,APPROVED
MN: DULUTH,01/03/2021 02:41:00,,1666.00,992.00,273.00,148.00,81.00,102.00,55.00,23.00,APPROVED
MN: DULUTH,01/03/2021 03:41:00,,1680.00,991.00,281.00,151.00,79.00,108.00,57.00,23.00,APPROVED
MN: DULUTH,01/03/2021 04:42:00,,1720.00,1029.00,291.00,156.00,82.00,113.00,59.00,25.00,APPROVED
MN: DULUTH,01/03/2021 05:42:00,,1728.00,1055.00,297.00,160.00,85.00,115.00,60.00,25.00,APPROVED
MN: DULUTH,01/03/2021 06:42:00,,1742.00,1069.00,299.00,165.00,86.00,118.00,61.00,26.00,APPROVED
MN: DULUTH,01/03/2021 07:42:00,,1723.00,1051.00,295.00,163.00,85.00,116.00,59.00,25.00,APPROVED
MN: DULUTH,01/03/2021 08:42:00,,1728.00,1043.00,301.00,162.00,84.00,114.00,60.00,25.00,APPROVED
MN: DULUTH,01/03/2021 09:43:00,,1730.00,1060.00,301.00,164.00,88.00,119.00,61.00,25.00,APPROVED
MN: DULUTH,01/03/2021 10:43:00,,1710.00,1046.00,297.00,163.00,86.00,116.00,62.00,24.00,APPROVED
MN: DULUTH,01/03/2021 11:43:00,,1712.00,1044.00,295.00,162.00,87.00,111.00,61.00,24.00,APPROVED
MN: DULUTH,01/03/2021 12:43:00,,1733.00,1050.00,295.00,166.00,87.00,116.00,60.00,25.00,APPROVED
MN: DULUTH,01/03/2021 13:43:00,,1760.00,1073.00,303.00,163.00,86.00,118.00,62.00,25.00,APPROVED
MN: DULUTH,01/03/2021 14:44:00,,1770.00,1106.00,313.00,174.00,92.00,121.00,63.00,26.00,APPROVED
MN: DULUTH,01/03/2021 15:44:00,,1789.00,1113.00,313.00,176.00,90.00,124.00,65.00,26.00,APPROVED
MN: DULUTH,01/03/2021 16:44:00,,1785.00,1110.00,315.00,176.00,90.00,124.00,64.00,26.00,APPROVED
MN: DULUTH,01/03/2021 17:44:00,,1792.00,1105.00,317.00,173.00,91.00,124.00,63.00,26.00,APPROVED
MN: DULUTH,01/03/2021 18:44:00,,1783.00,1099.00,306.00,169.00,88.00,121.00,63.00,25.00,APPROVED
MN: DULUTH,01/03/2021 19:45:00,,1765.00,1063.00,301.00,161.00,86.00,115.00,61.00,24.00,APPROVED
MN: DULUTH,01/03/2021 20:45:00,,1748.00,1050.00,291.00,158.00,85.00,113.00,59.00,25.00,APPROVED
MN: DULUTH,01/03/2021 21:45:00,,1727.00,1033.00,291.00,154.00,83.00,111.00,58.00,25.00,APPROVED
MN: DULUTH,01/03/2021 22:45:00,,1754.00,1044.00,291.00,159.00,82.00,114.00,59.00,24.00,APPROVED
MN: DULUTH,01/03/2021 23:45:00,,1763.00,1077.00,284.00,176.00,89.00,113.00,63.00,30.00,APPROVED
MN: DULUTH,01/04/2021 00:46:00,,1766.00,1102.00,288.00,187.00,91.00,117.00,64.00,32.00,APPROVED
MN: DULUTH,01/04/2021 01:46:00,,1768.00,1111.00,293.00,187.00,90.00,116.00,65.00,32.00,APPROVED
MN: DULUTH,01/04/2021 02:46:00,,1768.00,1105.00,292.00,191.00,91.00,116.00,66.00,32.00,APPROVED
MN: DULUTH,01/04/2021 03:46:00,,1755.00,1094.00,287.00,188.00,93.00,117.00,67.00,33.00,APPROVED
MN: DULUTH,01/04/2021 04:46:00,,1765.00,1102.00,288.00,189.00,90.00,113.00,67.00,33.00,APPROVED
MN: DULUTH,01/04/2021 05:47:00,,1765.00,1106.00,290.00,192.00,93.00,117.00,66.00,34.00,APPROVED
MN: DULUTH,01/04/2021 06:47:00,,1774.00,1115.00,294.00,196.00,92.00,119.00,68.00,34.00,APPROVED
MN: DULUTH,01/04/2021 07:47:00,,1803.00,1147.00,300.00,200.00,96.00,121.00,71.00,35.00,APPROVED
MN: DULUTH,01/04/2021 08:47:00,,1850.00,1206.00,310.00,215.00,99.00,131.00,74.00,36.00,APPROVED
MN: DULUTH,01/04/2021 09:47:00,,1889.00,1251.00,329.00,230.00,105.00,138.00,74.00,39.00,APPROVED
MN: DULUTH,01/04/2021 10:48:00,,1914.00,1269.00,334.00,237.00,110.00,140.00,76.00,40.00,APPROVED
MN: DULUTH,01/04/2021 11:48:00,,1951.00,1308.00,339.00,243.00,111.00,145.00,79.00,40.00,APPROVED
MN: DULUTH,01/04/2021 12:48:00,,1979.00,1345.00,351.00,252.00,112.00,150.00,83.00,44.00,APPROVED
MN: DULUTH,01/04/2021 13:48:00,,1979.00,1357.00,353.00,257.00,116.00,151.00,83.00,42.00,APPROVED
MN: DULUTH,01/04/2021 14:48:00,,2002.00,1376.00,368.00,266.00,118.00,154.00,83.00,44.00,APPROVED
MN: DULUTH,01/04/2021 15:49:00,,2021.00,1399.00,367.00,273.00,121.00,158.00,83.00,45.00,APPROVED
MN: DULUTH,01/04/2021 16:49:00,,2055.00,1416.00,374.00,277.00,123.00,157.00,87.00,44.00,APPROVED
MN: DULUTH,01/04/2021 18:49:00,,2125.00,1469.00,381.00,284.00,126.00,163.00,87.00,46.00,APPROVED
MN: DULUTH,01/04/2021 19:49:00,,2064.00,1426.00,372.00,272.00,122.00,161.00,88.00,45.00,APPROVED
MN: DULUTH,01/04/2021 20:50:00,,2025.00,1375.00,360.00,265.00,117.00,152.00,84.00,43.00,APPROVED
MN: DULUTH,01/04/2021 21:50:00,,1961.00,1342.00,349.00,254.00,113.00,149.00,82.00,43.00,APPROVED
MN: DULUTH,01/04/2021 22:50:00,,1949.00,1313.00,349.00,250.00,112.00,142.00,79.00,40.00,APPROVED
MN: DULUTH,01/04/2021 23:50:00,,1912.00,1304.00,342.00,248.00,111.00,143.00,82.00,42.00,APPROVED
MN: DULUTH,01/05/2021 00:50:00,,1882.00,1336.00,343.00,255.00,111.00,146.00,84.00,42.00,APPROVED
MN: DULUTH,01/05/2021 01:51:00,,1825.00,1286.00,331.00,247.00,110.00,144.00,79.00,40.00,APPROVED
MN: DULUTH,01/05/2021 02:51:00,,1746.00,1210.00,319.00,235.00,107.00,137.00,77.00,38.00,APPROVED
MN: DULUTH,01/05/2021 03:51:00,,1609.00,1093.00,289.00,203.00,93.00,121.00,71.00,36.00,APPROVED
MN: DULUTH,01/05/2021 04:51:00,,1490.00,888.00,242.00,148.00,75.00,96.00,57.00,27.00,APPROVED
MN: DULUTH,01/05/2021 05:51:00,,1460.00,831.00,222.00,126.00,68.00,83.00,49.00,24.00,APPROVED
MN: DULUTH,01/05/2021 06:52:00,,1435.00,807.00,216.00,119.00,64.00,79.00,49.00,24.00,APPROVED
MN: DULUTH,01/05/2021 07:52:00,,1439.00,806.00,219.00,118.00,64.00,79.00,49.00,23.00,APPROVED
MN: DULUTH,01/05/2021 08:52:00,,1455.00,809.00,217.00,116.00,65.00,80.00,49.00,23.00,APPROVED
MN: DULUTH,01/05/2021 09:52:00,,1456.00,805.00,216.00,116.00,64.00,80.00,49.00,23.00,APPROVED
MN: DULUTH,01/05/2021 10:52:00,,1463.00,817.00,220.00,117.00,66.00,77.00,50.00,23.00,APPROVED
MN: DULUTH,01/05/2021 11:53:00,,1475.00,840.00,223.00,122.00,68.00,82.00,51.00,24.00,APPROVED
MN: DULUTH,01/05/2021 12:53:00,,1470.00,841.00,226.00,127.00,69.00,84.00,50.00,24.00,APPROVED
MN: DULUTH,01/05/2021 13:53:00,,1475.00,858.00,229.00,129.00,70.00,85.00,53.00,24.00,APPROVED
MN: DULUTH,01/05/2021 14:53:00,,1497.00,859.00,231.00,131.00,72.00,89.00,53.00,25.00,APPROVED
MN: DULUTH,01/06/2021 20:28:00,,1397.00,802.00,210.00,126.00,66.00,82.00,49.00,22.00,APPROVED
MN: DULUTH,01/06/2021 21:29:00,,1391.00,801.00,216.00,126.00,65.00,84.00,49.00,22.00,APPROVED
MN: DULUTH,01/06/2021 22:29:00,,1380.00,800.00,216.00,128.00,67.00,87.00,49.00,22.00,APPROVED
MN: DULUTH,01/06/2021 23:29:00,,1388.00,790.00,211.00,125.00,65.00,86.00,49.00,23.00,APPROVED
MN: DULUTH,01/07/2021 00:29:00,,1371.00,772.00,204.00,121.00,64.00,80.00,48.00,22.00,APPROVED
MN: DULUTH,01/07/2021 01:29:00,,1364.00,761.00,204.00,117.00,64.00,79.00,45.00,21.00,APPROVED
MN: DULUTH,01/07/2021 02:29:00,,1385.00,766.00,207.00,116.00,63.00,81.00,44.00,21.00,APPROVED
MN: DULUTH,01/07/2021 03:30:00,,1380.00,785.00,211.00,125.00,67.00,82.00,47.00,21.00,APPROVED
MN: DULUTH,01/07/2021 04:30:00,,1379.00,781.00,214.00,124.00,64.00,83.00,47.00,21.00,APPROVED
MN: DULUTH,01/07/2021 05:30:00,,1378.00,787.00,208.00,122.00,67.00,83.00,48.00,22.00,APPROVED
MN: DULUTH,01/07/2021 06:30:00,,1402.00,814.00,217.00,128.00,70.00,87.00,49.00,23.00,APPROVED
MN: DULUTH,01/07/2021 07:30:00,,1422.00,860.00,233.00,140.00,72.00,92.00,51.00,24.00,APPROVED
MN: DULUTH,01/07/2021 08:31:00,,1430.00,878.00,241.00,145.00,74.00,97.00,54.00,23.00,APPROVED
MN: DULUTH,01/07/2021 09:31:00,,1418.00,855.00,233.00,140.00,74.00,95.00,52.00,23.00,APPROVED
MN: DULUTH,01/07/2021 10:31:00,,1411.00,843.00,235.00,140.00,75.00,94.00,53.00,24.00,APPROVED
MN: DULUTH,01/07/2021 11:31:00,,1423.00,857.00,238.00,142.00,72.00,96.00,54.00,24.00,APPROVED
MN: DULUTH,01/07/2021 12:31:00,,1421.00,859.00,238.00,142.00,73.00,97.00,52.00,23.00,APPROVED
MN: DULUTH,01/07/2021 13:32:00,,1447.00,892.00,248.00,154.00,74.00,101.00,55.00,24.00,APPROVED
MN: DULUTH,01/07/2021 14:32:00,,1434.00,883.00,241.00,149.00,73.00,98.00,54.00,24.00,APPROVED
MN: DULUTH,01/07/2021 15:32:00,,1417.00,855.00,236.00,145.00,73.00,95.00,53.00,24.00,APPROVED
MN: DULUTH,01/07/2021 16:32:00,,1451.00,889.00,241.00,153.00,78.00,100.00,54.00,25.00,APPROVED
MN: DULUTH,01/07/2021 17:32:00,,1426.00,872.00,237.00,148.00,74.00,96.00,54.00,26.00,APPROVED
MN: DULUTH,01/07/2021 18:33:00,,1389.00,784.00,214.00,130.00,68.00,84.00,49.00,23.00,APPROVED
MN: DULUTH,01/07/2021 19:33:00,,1357.00,762.00,207.00,118.00,64.00,80.00,48.00,23.00,APPROVED
MN: DULUTH,01/07/2021 20:33:00,,1355.00,741.00,200.00,114.00,63.00,77.00,46.00,22.00,APPROVED
MN: DULUTH,01/07/2021 21:33:00,,1351.00,739.00,197.00,111.00,61.00,78.00,44.00,22.00,APPROVED
MN: DULUTH,01/07/2021 22:33:00,,1348.00,743.00,202.00,116.00,62.00,80.00,47.00,23.00,APPROVED
MN: DULUTH,01/07/2021 23:34:00,,1362.00,766.00,207.00,118.00,64.00,81.00,48.00,22.00,APPROVED
MN: DULUTH,01/08/2021 00:34:00,,1381.00,786.00,211.00,122.00,64.00,84.00,46.00,21.00,APPROVED
MN: DULUTH,01/08/2021 01:34:00,,1404.00,798.00,216.00,126.00,66.00,83.00,48.00,22.00,APPROVED
MN: DULUTH,01/08/2021 02:34:00,,1398.00,801.00,219.00,125.00,68.00,88.00,49.00,23.00,APPROVED
MN: DULUTH,01/08/2021 03:34:00,,1424.00,824.00,226.00,129.00,70.00,88.00,49.00,23.00,APPROVED
MN: DULUTH,01/08/2021 04:35:00,,1436.00,857.00,235.00,137.00,72.00,95.00,50.00,22.00,APPROVED
MN: DULUTH,01/08/2021 05:35:00,,1410.00,833.00,239.00,127.00,69.00,93.00,47.00,20.00,APPROVED
MN: DULUTH,01/08/2021 06:35:00,,1410.00,808.00,241.00,118.00,67.00,97.00,43.00,21.00,APPROVED
MN: DULUTH,01/08/2021 07:35:00,,1398.00,808.00,238.00,114.00,67.00,96.00,43.00,20.00,APPROVED
MN: DULUTH,01/08/2021 08:35:00,,1384.00,802.00,238.00,115.00,69.00,94.00,43.00,20.00,APPROVED
MN: DULUTH,01/08/2021 09:36:00,,1365.00,780.00,232.00,111.00,66.00,92.00,43.00,20.00,APPROVED
MN: DULUTH,01/08/2021 10:36:00,,1367.00,783.00,233.00,110.00,67.00,91.00,42.00,19.00,APPROVED
MN: DULUTH,01/08/2021 11:36:00,,1392.00,788.00,236.00,114.00,66.00,97.00,41.00,20.00,APPROVED
MN: DULUTH,01/08/2021 12:36:00,,1378.00,794.00,237.00,112.00,68.00,94.00,43.00,21.00,APPROVED
MN: DULUTH,01/08/2021 13:36:00,,1368.00,782.00,235.00,111.00,68.00,93.00,42.00,20.00,APPROVED
MN: DULUTH,01/08/2021 14:37:00,,1354.00,762.00,227.00,108.00,64.00,89.00,41.00,18.00,APPROVED
MN: DULUTH,01/08/2021 15:37:00,,1330.00,741.00,222.00,106.00,63.00,88.00,39.00,20.00,APPROVED
MN: DULUTH,01/08/2021 16:37:00,,1329.00,722.00,213.00,102.00,61.00,84.00,37.00,19.00,APPROVED
MN: DULUTH,01/08/2021 17:37:00,,1323.00,715.00,210.00,100.00,61.00,79.00,36.00,19.00,APPROVED
MN: DULUTH,01/08/2021 19:38:00,,1317.00,701.00,202.00,96.00,60.00,79.00,35.00,19.00,APPROVED
MN: DULUTH,01/08/2021 20:38:00,,1323.00,703.00,201.00,95.00,59.00,78.00,35.00,19.00,APPROVED
MN: DULUTH,01/08/2021 21:38:00,,1327.00,697.00,204.00,94.00,57.00,78.00,34.00,17.00,APPROVED
MN: DULUTH,01/08/2021 22:38:00,,1330.00,694.00,198.00,93.00,57.00,80.00,33.00,19.00,APPROVED
MN: DULUTH,01/08/2021 23:38:00,,1327.00,694.00,197.00,94.00,58.00,79.00,34.00,19.00,APPROVED
MN: DULUTH,01/09/2021 00:39:00,,1331.00,715.00,206.00,97.00,59.00,79.00,35.00,19.00,APPROVED
MN: DULUTH,01/09/2021 01:39:00,,1338.00,724.00,212.00,101.00,59.00,82.00,36.00,19.00,APPROVED
MN: DULUTH,01/09/2021 02:39:00,,1349.00,734.00,211.00,102.00,63.00,84.00,38.00,19.00,APPROVED
MN: DULUTH,01/09/2021 03:39:00,,1346.00,730.00,215.00,101.00,62.00,83.00,36.00,19.00,APPROVED
MN: DULUTH,01/09/2021 04:39:00,,1375.00,766.00,219.00,103.00,64.00,88.00,38.00,19.00,APPROVED
MN: DULUTH,01/09/2021 05:40:00,,1358.00,752.00,220.00,105.00,63.00,88.00,39.00,19.00,APPROVED
MN: DULUTH,01/09/2021 06:40:00,,1325.00,718.00,209.00,99.00,61.00,84.00,37.00,19.00,APPROVED
MN: DULUTH,01/09/2021 07:40:00,,1334.00,725.00,214.00,103.00,63.00,86.00,37.00,19.00,APPROVED
MN: DULUTH,01/09/2021 08:40:00,,1354.00,740.00,213.00,103.00,60.00,83.00,37.00,18.00,APPROVED
MN: DULUTH,01/09/2021 09:40:00,,1370.00,747.00,217.00,102.00,62.00,86.00,37.00,20.00,APPROVED
MN: DULUTH,01/09/2021 10:41:00,,1377.00,752.00,220.00,105.00,62.00,87.00,36.00,18.00,APPROVED
MN: DULUTH,01/09/2021 11:41:00,,1380.00,761.00,224.00,106.00,63.00,88.00,38.00,20.00,APPROVED
MN: DULUTH,01/09/2021 12:41:00,,1407.00,764.00,226.00,105.00,65.00,86.00,37.00,19.00,APPROVED
MN: DULUTH,01/09/2021 13:41:00,,1413.00,779.00,224.00,105.00,65.00,88.00,37.00,19.00,APPROVED
MN: DULUTH,01/09/2021 14:41:00,,1423.00,787.00,231.00,108.00,66.00,89.00,39.00,19.00,APPROVED
MN: DULUTH,01/09/2021 15:42:00,,1433.00,808.00,231.00,118.00,66.00,89.00,46.00,20.00,APPROVED
MN: DULUTH,01/09/2021 16:42:00,,1443.00,835.00,227.00,130.00,68.00,88.00,49.00,22.00,APPROVED
MN: DULUTH,01/09/2021 17:42:00,,1429.00,824.00,223.00,135.00,67.00,90.00,51.00,21.00,APPROVED
MN: DULUTH,01/09/2021 18:42:00,,1419.00,807.00,217.00,125.00,65.00,85.00,49.00,22.00,APPROVED
MN: DULUTH,01/09/2021 19:42:00,,1417.00,788.00,217.00,121.00,66.00,83.00,48.00,22.00,APPROVED
MN: DULUTH,01/09/2021 20:43:00,,1413.00,800.00,215.00,122.00,66.00,81.00,48.00,21.00,APPROVED
MN: DULUTH,01/09/2021 21:43:00,,1437.00,829.00,218.00,128.00,68.00,87.00,50.00,23.00,APPROVED
MN: DULUTH,01/09/2021 22:43:00,,1453.00,835.00,228.00,131.00,71.00,89.00,50.00,23.00,APPROVED
MN: DULUTH,01/09/2021 23:43:00,,1444.00,828.00,229.00,131.00,69.00,89.00,50.00,23.00,APPROVED
MN: DULUTH,01/10/2021 00:43:00,,1448.00,827.00,227.00,135.00,68.00,88.00,50.00,23.00,APPROVED
MN: DULUTH,01/10/2021 01:44:00,,1447.00,833.00,227.00,135.00,68.00,90.00,52.00,22.00,APPROVED
MN: DULUTH,01/10/2021 02:44:00,,1433.00,835.00,225.00,133.00,69.00,91.00,50.00,22.00,APPROVED
MN: DULUTH,01/10/2021 03:44:00,,1416.00,816.00,221.00,131.00,70.00,88.00,50.00,23.00,APPROVED
MN: DULUTH,01/10/2021 04:44:00,,1388.00,800.00,220.00,126.00,68.00,87.00,48.00,22.00,APPROVED
MN: DULUTH,01/10/2021 05:44:00,,1366.00,784.00,218.00,122.00,65.00,86.00,48.00,23.00,APPROVED
MN: DULUTH,01/10/2021 06:45:00,,1357.00,767.00,214.00,120.00,64.00,83.00,48.00,21.00,APPROVED
MN: DULUTH,01/10/2021 07:45:00,,1364.00,772.00,212.00,119.00,67.00,85.00,46.00,22.00,APPROVED
MN: DULUTH,01/10/2021 08:45:00,,1356.00,776.00,216.00,122.00,67.00,85.00,46.00,21.00,APPROVED
MN: DULUTH,01/10/2021 09:45:00,,1361.00,788.00,219.00,123.00,67.00,86.00,48.00,23.00,APPROVED
MN: DULUTH,01/10/2021 10:45:00,,1353.00,801.00,222.00,125.00,66.00,89.00,49.00,21.00,APPROVED
MN: DULUTH,01/10/2021 11:46:00,,1346.00,767.00,213.00,119.00,63.00,85.00,47.00,22.00,APPROVED
MN: DULUTH,01/10/2021 12:46:00,,1336.00,758.00,210.00,118.00,64.00,80.00,45.00,21.00,APPROVED
MN: DULUTH,01/10/2021 13:46:00,,1334.00,735.00,206.00,115.00,63.00,80.00,46.00,22.00,APPROVED
MN: DULUTH,01/10/2021 14:46:00,,1325.00,747.00,202.00,114.00,62.00,80.00,46.00,21.00,APPROVED
MN: DULUTH,01/10/2021 15:46:00,,1334.00,744.00,205.00,113.00,63.00,77.00,45.00,20.00,APPROVED
MN: DULUTH,01/10/2021 16:47:00,,1325.00,744.00,207.00,112.00,63.00,78.00,44.00,21.00,APPROVED
MN: DULUTH,01/10/2021 17:47:00,,1345.00,740.00,203.00,110.00,61.00,78.00,47.00,21.00,APPROVED
MN: DULUTH,01/10/2021 18:47:00,,1345.00,747.00,203.00,113.00,62.00,81.00,47.00,21.00,APPROVED
MN: DULUTH,01/10/2021 19:47:00,,1341.00,749.00,205.00,117.00,64.00,79.00,46.00,20.00,APPROVED
MN: DULUTH,01/10/2021 20:47:00,,1356.00,759.00,207.00,116.00,64.00,82.00,46.00,21.00,APPROVED
MN: DULUTH,01/10/2021 21:48:00,,1370.00,768.00,210.00,118.00,63.00,80.00,46.00,21.00,APPROVED
MN: DULUTH,01/10/2021 22:48:00,,1364.00,763.00,209.00,117.00,64.00,83.00,46.00,22.00,APPROVED
MN: DULUTH,01/10/2021 23:48:00,,1378.00,775.00,209.00,121.00,65.00,82.00,47.00,21.00,APPROVED
MN: DULUTH,01/11/2021 00:48:00,,1380.00,793.00,216.00,127.00,69.00,85.00,47.00,22.00,APPROVED
MN: DULUTH,01/11/2021 01:48:00,,1410.00,813.00,219.00,126.00,68.00,85.00,50.00,22.00,APPROVED
MN: DULUTH,01/11/2021 02:49:00,,1428.00,819.00,222.00,130.00,68.00,88.00,49.00,23.00,APPROVED
MN: DULUTH,01/11/2021 03:49:00,,1415.00,820.00,222.00,130.00,68.00,86.00,51.00,23.00,APPROVED
MN: DULUTH,01/11/2021 04:49:00,,1424.00,814.00,224.00,131.00,70.00,89.00,48.00,22.00,APPROVED
MN: DULUTH,01/11/2021 05:49:00,,1424.00,830.00,221.00,133.00,69.00,88.00,50.00,23.00,APPROVED
MN: DULUTH,01/11/2021 06:49:00,,1445.00,840.00,229.00,135.00,71.00,90.00,50.00,22.00,APPROVED
MN: DULUTH,01/11/2021 07:50:00,,1456.00,849.00,230.00,135.00,70.00,92.00,52.00,23.00,APPROVED
MN: DULUTH,01/11/2021 08:50:00,,1462.00,856.00,231.00,135.00,70.00,91.00,51.00,24.00,APPROVED
MN: DULUTH,01/11/2021 09:50:00,,1470.00,855.00,231.00,140.00,69.00,90.00,50.00,24.00,APPROVED
MN: DULUTH,01/11/2021 10:50:00,,1473.00,853.00,230.00,136.00,71.00,88.00,53.00,24.00,APPROVED
MN: DULUTH,01/11/2021 11:50:00,,1468.00,858.00,227.00,136.00,73.00,93.00,53.00,24.00,APPROVED
MN: DULUTH,01/11/2021 12:51:00,,1474.00,854.00,230.00,138.00,70.00,90.00,52.00,22.00,APPROVED
MN: DULUTH,01/11/2021 13:51:00,,1478.00,859.00,230.00,136.00,70.00,91.00,51.00,24.00,APPROVED
MN: DULUTH,01/11/2021 14:51:00,,1480.00,857.00,228.00,138.00,70.00,92.00,51.00,25.00,APPROVED
MN: DULUTH,01/11/2021 15:51:00,,1477.00,860.00,234.00,140.00,73.00,92.00,53.00,23.00,APPROVED
MN: DULUTH,01/11/2021 16:51:00,,1478.00,864.00,229.00,138.00,71.00,90.00,52.00,25.00,APPROVED
MN: DULUTH,01/11/2021 17:52:00,,1492.00,870.00,235.00,141.00,71.00,92.00,52.00,25.00,APPROVED
MN: DULUTH,01/11/2021 18:52:00,,1510.00,884.00,238.00,144.00,76.00,95.00,55.00,25.00,APPROVED
MN: DULUTH,01/11/2021 19:52:00,,1525.00,910.00,242.00,146.00,75.00,98.00,54.00,24.00,APPROVED
MN: DULUTH,01/11/2021 20:52:00,,1523.00,915.00,248.00,153.00,75.00,101.00,55.00,26.00,APPROVED
MN: DULUTH,01/11/2021 21:52:00,,1533.00,917.00,242.00,152.00,76.00,98.00,56.00,25.00,APPROVED
MN: DULUTH,01/11/2021 22:53:00,,1530.00,911.00,240.00,152.00,75.00,96.00,56.00,25.00,APPROVED
MN: DULUTH,01/11/2021 23:53:00,,1531.00,905.00,242.00,152.00,76.00,96.00,56.00,26.00,APPROVED
MN: DULUTH,01/12/2021 00:53:00,,1540.00,918.00,242.00,150.00,76.00,100.00,54.00,26.00,APPROVED
MN: DULUTH,01/12/2021 01:53:00,,1538.00,920.00,246.00,152.00,74.00,97.00,55.00,25.00,APPROVED
MN: DULUTH,01/12/2021 02:53:00,,1526.00,910.00,241.00,148.00,74.00,96.00,56.00,24.00,APPROVED
MN: DULUTH,01/12/2021 03:54:00,,1524.00,916.00,243.00,152.00,77.00,99.00,56.00,26.00,APPROVED
MN: DULUTH,01/12/2021 04:54:00,,1515.00,908.00,244.00,152.00,76.00,99.00,56.00,26.00,APPROVED
MN: DULUTH,01/12/2021 05:54:00,,1513.00,908.00,243.00,149.00,75.00,97.00,55.00,25.00,APPROVED
MN: DULUTH,01/12/2021 06:54:00,,1518.00,912.00,244.00,151.00,77.00,98.00,55.00,25.00,APPROVED
MN: DULUTH,01/12/2021 07:54:00,,1501.00,912.00,243.00,151.00,74.00,98.00,55.00,25.00,APPROVED
MN: DULUTH,01/12/2021 08:54:00,,1508.00,899.00,242.00,149.00,73.00,95.00,55.00,25.00,APPROVED
MN: DULUTH,01/12/2021 09:55:00,,1513.00,901.00,244.00,153.00,73.00,98.00,56.00,25.00,APPROVED
MN: DULUTH,01/12/2021 10:55:00,,1511.00,909.00,247.00,149.00,75.00,99.00,56.00,26.00,APPROVED
MN: DULUTH,01/12/2021 11:55:00,,1521.00,918.00,247.00,155.00,76.00,97.00,57.00,25.00,APPROVED
MN: DULUTH,01/12/2021 12:55:00,,1513.00,917.00,247.00,155.00,76.00,101.00,57.00,25.00,APPROVED
MN: DULUTH,01/12/2021 13:55:00,,1515.00,914.00,245.00,153.00,75.00,100.00,55.00,26.00,APPROVED
MN: DULUTH,01/12/2021 14:56:00,,1514.00,909.00,245.00,153.00,78.00,99.00,55.00,26.00,APPROVED
MN: DULUTH,01/12/2021 15:56:00,,1513.00,914.00,241.00,153.00,75.00,100.00,55.00,25.00,APPROVED
MN: DULUTH,01/12/2021 16:56:00,,1532.00,919.00,249.00,152.00,77.00,102.00,56.00,26.00,APPROVED